EHI
0 0 0 0 0 0 0 0 0 0 0 0 0 0 0 1 2 3 3 2 2 1 0 0 0 0 0 0 1 0 0 0 0 0 0 0 0 0 0 0 0 0 0
0 0 0 0 0 0 0 0 0 0 0 0 0 0 1 2 2 3 3 2 1 0 0 0 0 0 1 1 2 1 0 0 0 0 0 0 0 0 0 0 0 0 0
0 0 0 0 0 0 0 0 0 0 0 0 0 0 1 1 2 3 3 2 1 0 0 0 0 0 1 2 2 2 1 1 0 0 0 0 0 0 0 0 0 0 0
0 0 0 0 0 0 0 0 0 0 0 0 0 0 0 0 1 2 2 2 1 0 0 0 0 0 1 1 1 2 2 1 0 0 0 0 0 0 0 0 0 0 0
0 0 0 0 0 0 0 0 0 0 1 1 1 0 0 0 0 1 1 1 0 0 0 0 0 0 0 0 0 1 1 0 0 0 0 0 0 0 0 0 0 0 0
0 0 0 0 0 0 0 0 0 0 1 2 2 1 0 0 0 0 0 0 0 0 0 0 0 0 0 0 0 0 0 0 0 0 0 0 0 0 0 0 0 0 0
0 0 0 0 0 0 0 0 0 0 0 1 2 1 0 0 0 0 0 0 0 0 0 0 0 0 0 0 0 0 0 0 0 0 0 0 0 0 0 0 0 0 0
0 0 0 0 0 0 0 0 0 0 0 1 2 2 1 0 0 0 0 0 0 0 0 0 0 0 0 0 0 0 0 0 0 0 0 0 0 0 0 0 0 0 0
0 0 0 0 0 0 0 0 0 0 0 1 2 2 1 0 0 0 0 0 0 0 0 0 0 0 0 0 0 0 0 0 0 0 0 0 0 0 0 0 0 0 0
0 0 0 0 0 0 0 0 0 0 0 0 1 1 1 0 0 0 0 0 0 0 0 0 0 0 0 0 0 0 0 0 0 0 0 0 0 0 0 0 0 0 0
0 0 0 0 0 0 0 0 0 0 0 0 0 0 0 0 0 0 0 0 0 0 0 0 0 0 0 0 0 0 0 0 0 0 0 0 0 0 0 0 0 0 0
0 0 0 0 0 0 0 0 0 0 0 0 0 0 0 0 0 0 0 0 0 0 0 0 0 0 0 0 0 0 0 0 0 0 0 0 0 0 0 0 0 0 0
0 0 0 0 0 0 0 0 0 0 0 0 0 0 0 0 0 0 0 0 0 0 0 0 0 0 0 0 0 0 0 0 0 0 0 0 0 0 0 0 0 0 0
0 0 0 0 0 0 0 0 0 0 0 0 0 0 0 0 0 0 0 0 0 0 0 0 0 0 0 0 0 0 0 0 0 0 0 0 0 0 0 0 0 0 0
0 0 0 0 0 0 0 0 0 0 0 0 0 0 0 0 0 0 0 0 0 0 0 0 0 0 0 0 0 0 0 0 0 0 0 0 0 0 0 0 0 0 0
0 0 0 0 0 0 0 0 0 0 0 0 0 0 0 0 0 0 0 0 0 0 0 0 0 0 0 0 0 0 0 0 0 0 0 0 0 0 0 0 0 0 0
0 0 0 0 0 0 0 0 0 0 0 0 0 0 0 0 0 0 0 0 0 0 0 0 0 0 0 0 0 0 0 0 0 0 0 0 0 0 0 0 0 0 0
0 0 0 0 0 0 0 0 0 0 0 0 0 0 0 0 0 0 0 0 0 0 0 0 0 0 0 0 0 0 0 0 0 0 0 0 0 0 0 0 0 0 0
0 0 0 0 0 0 0 0 0 0 0 0 0 0 0 0 0 0 0 0 0 0 0 0 0 0 0 0 0 0 0 0 0 0 0 0 0 0 0 0 0 0 0
0 0 0 0 0 0 0 0 0 0 0 0 0 0 0 0 0 0 0 0 0 0 0 0 0 0 0 0 0 0 0 0 0 0 0 0 0 0 0 0 0 0 0
0 0 0 0 0 0 0 0 0 0 0 0 0 0 0 0 0 0 0 0 0 0 0 0 0 0 0 0 0 0 0 0 0 0 0 0 0 0 0 0 0 0 0
0 0 0 0 0 0 0 0 0 0 0 0 0 0 0 0 0 0 0 0 0 0 0 0 0 0 0 0 0 0 0 0 0 0 0 0 0 0 0 0 0 0 0
0 0 0 0 0 0 0 0 0 0 0 0 0 0 0 0 0 0 0 0 0 0 0 0 0 0 0 0 0 0 0 0 0 0 0 0 0 0 0 0 0 0 0
0 0 0 0 0 0 0 0 0 0 0 0 0 0 0 0 0 0 0 0 0 0 0 0 0 0 0 0 0 0 0 0 0 0 0 0 0 0 0 0 0 0 0
0 0 0 0 0 0 0 0 0 0 0 0 0 0 0 0 0 0 0 0 0 0 0 0 0 0 0 0 0 0 0 0 0 0 0 0 0 0 0 0 0 0 0
0 0 0 0 0 0 0 0 0 0 0 0 0 0 0 0 0 0 0 0 0 0 0 0 0 0 0 0 0 0 0 0 0 0 0 0 0 0 0 0 0 0 0
Wind_Speed
7 6 5 5 6 6 7 8 9 10 8 7 8 8 8 7 7 7 9 10 11 12 10 8 9 8 8 8 8 6 6 5 4 3 2 3 5 6 5 5 5 6 6
7 6 6 5 6 6 7 8 9 10 10 8 8 7 7 7 7 6 8 10 11 12 11 11 9 9 8 9 9 7 6 5 6 5 3 3 4 6 7 6 6 6 5
7 6 6 5 5 6 7 7 9 9 10 9 6 5 5 4 6 7 8 10 12 13 12 13 10 10 10 9 10 9 9 7 6 6 6 5 5 3 4 7 7 7 5
6 5 5 6 6 6 6 7 8 9 10 10 9 9 9 9 10 9 8 9 12 12 13 13 13 11 10 10 11 11 8 8 7 6 6 5 4 3 2 3 5 7 7
4 4 5 5 6 6 5 5 6 8 9 10 11 11 10 9 7 7 9 10 10 12 13 13 13 12 11 11 11 11 10 9 8 7 5 6 4 4 3 3 3 4 5
2 3 3 3 4 4 5 5 6 7 8 10 11 12 13 11 9 10 10 10 8 9 13 13 13 13 11 12 12 12 12 11 10 8 7 6 5 6 5 5 4 4 4
3 3 4 3 3 2 4 4 6 7 8 9 11 12 13 13 12 12 11 10 9 9 13 13 13 12 12 12 11 12 12 12 11 11 9 8 8 5 5 6 5 4 3
3 4 4 3 2 3 3 4 5 7 8 9 10 11 12 10 9 11 10 11 10 10 11 13 13 13 12 12 12 10 11 10 12 12 11 8 8 7 6 6 5 4 4
4 5 5 4 3 3 3 4 5 6 7 7 8 9 10 10 9 9 10 8 9 8 11 12 13 13 13 13 12 10 12 11 12 11 11 9 7 7 6 5 5 6 6
5 5 5 4 4 3 3 3 4 6 5 6 7 7 9 9 9 8 9 9 9 9 10 12 13 13 13 12 12 9 9 11 11 9 10 10 7 6 6 5 5 5 6
5 5 5 4 4 4 3 3 4 4 5 5 6 6 7 8 8 8 9 9 8 9 10 11 12 13 13 13 12 12 11 12 11 10 11 11 9 6 6 5 5 5 5
5 5 5 4 4 4 4 4 3 3 4 4 4 6 6 6 7 8 8 8 9 9 10 9 10 11 12 12 13 13 12 13 13 12 12 12 9 9 7 7 7 6 6
7 6 5 4 4 4 4 4 4 3 3 3 3 4 5 6 6 7 7 7 7 8 9 10 10 10 11 12 12 12 12 13 12 12 12 12 11 11 8 8 8 6 6
7 6 6 4 4 4 4 4 5 4 3 3 3 4 4 5 5 5 5 6 6 6 7 8 9 9 9 10 10 11 11 11 11 11 11 11 12 12 10 9 9 7 7
7 6 5 5 5 4 4 4 5 4 4 4 3 3 4 4 3 4 4 5 5 6 6 6 7 7 7 7 8 9 10 10 9 9 9 10 11 12 10 8 8 8 7
7 6 6 5 5 5 5 5 5 5 4 4 4 4 4 4 3 3 3 3 4 4 5 6 6 7 6 7 8 8 8 9 9 9 8 8 11 12 13 13 12 12 10
6 5 5 5 5 5 5 5 5 4 4 4 5 4 4 4 3 3 3 4 4 4 4 5 5 5 6 7 8 8 7 7 8 8 7 6 7 10 8 10 11 11 12
5 5 4 5 5 5 5 5 4 4 4 4 5 5 4 4 4 3 3 3 3 3 4 4 4 4 4 6 7 8 7 6 6 7 7 7 6 7 7 6 7 7 7
5 5 4 5 5 6 5 4 4 4 4 5 5 5 4 4 4 3 3 3 2 2 3 3 3 4 4 6 7 7 5 5 5 4 5 6 7 9 9 7 7 5 4
5 6 6 6 6 6 5 4 4 4 4 5 5 5 4 4 4 3 3 2 1 2 2 2 2 3 3 6 8 8 4 4 4 3 4 7 7 9 10 8 8 7 5
5 6 6 5 6 6 5 4 4 5 5 4 5 5 4 4 4 3 2 2 1 1 1 1 1 2 3 4 7 8 5 5 4 4 3 4 8 9 10 8 6 7 6
5 5 5 5 6 5 5 4 4 4 4 4 4 4 4 4 3 3 3 2 1 1 1 1 1 1 2 2 5 7 6 4 4 4 3 4 8 9 9 7 6 8 7
5 4 5 6 6 5 4 4 5 4 4 4 4 4 4 3 3 2 2 2 1 1 1 1 1 1 1 1 3 5 6 5 3 3 5 6 7 8 7 7 8 8 5
5 4 5 6 6 5 4 4 4 4 4 4 4 4 3 3 3 2 2 2 2 2 1 1 1 1 1 1 1 1 2 3 3 3 5 6 6 5 5 6 6 4 4
4 4 4 5 6 6 5 5 4 4 4 4 4 4 3 3 3 3 2 3 2 3 2 2 1 2 2 3 2 2 2 2 2 3 3 3 3 3 3 3 3 3 4
4 4 4 5 5 5 6 5 4 4 3 4 4 3 3 3 2 2 3 4 3 4 4 2 2 2 3 2 2 3 4 4 6 4 3 4 4 4 4 4 4 3 3
Wind_Direction
241 235 230 219 210 203 201 198 195 195 190 190 193 194 199 198 197 198 197 197 192 188 186 188 188 187 188 188 186 185 190 197 181 176 225 249 231 223 219 213 212 210 204
245 232 228 223 218 206 204 203 198 195 196 196 198 198 197 199 201 199 202 204 197 192 192 191 192 190 188 190 192 188 187 194 181 170 173 239 255 238 222 212 211 212 204
246 235 227 228 224 217 213 213 204 197 198 195 188 191 189 193 200 204 207 209 203 199 195 195 193 193 191 195 196 194 190 195 195 184 176 186 216 228 225 213 208 206 207
248 242 228 223 220 221 216 215 208 199 196 193 191 194 200 204 206 202 205 208 205 205 200 198 197 197 197 198 199 199 196 188 196 202 211 212 186 180 229 242 215 206 208
244 250 242 232 219 213 217 220 214 206 197 195 198 201 210 213 209 202 205 211 209 208 205 202 201 201 201 202 201 200 200 198 198 197 198 221 235 220 193 225 227 222 217
296 280 264 255 233 211 211 221 220 215 205 199 201 205 210 211 209 208 209 210 210 209 209 206 204 205 205 203 204 204 202 203 204 203 198 190 195 204 204 217 218 221 224
331 324 315 306 298 242 221 225 222 220 212 205 204 208 211 212 213 211 209 207 210 209 209 207 207 208 209 206 203 205 206 204 205 207 208 206 210 195 194 208 219 223 223
325 315 306 303 307 281 236 234 229 227 219 211 210 212 214 215 218 215 212 210 213 211 206 208 211 210 209 209 208 209 209 207 209 212 209 211 211 206 201 198 197 221 235
334 326 326 321 314 301 261 249 243 236 231 222 214 217 217 219 221 219 215 213 213 210 205 208 211 213 211 209 210 215 212 208 210 212 212 212 209 207 208 204 194 198 225
333 329 323 319 309 296 278 261 254 240 239 234 223 222 220 222 223 220 219 218 214 210 205 208 210 211 212 211 211 216 216 212 212 209 210 215 211 206 203 205 207 205 212
318 318 312 314 315 318 305 280 260 251 243 238 233 228 225 225 225 225 224 221 217 211 208 208 211 211 212 212 214 216 214 217 216 210 210 214 208 206 203 199 203 210 207
304 306 308 312 320 318 313 304 287 267 260 251 243 233 229 228 230 230 229 225 220 214 211 209 212 213 212 211 214 216 214 215 218 214 210 212 207 207 204 203 208 211 210
313 315 320 321 321 322 319 315 308 297 289 274 259 248 236 230 232 236 233 227 224 221 214 211 213 216 215 213 215 217 216 217 218 215 214 212 206 210 207 204 209 212 211
313 319 320 318 320 323 323 323 319 316 310 292 271 265 254 241 235 236 237 231 225 224 221 218 216 216 218 217 215 216 217 218 219 217 216 212 209 211 207 206 208 206 208
316 320 320 320 324 328 326 324 322 324 330 315 293 284 281 264 248 240 239 237 232 232 226 221 222 220 218 218 216 215 217 216 218 219 218 215 210 210 207 206 203 199 206
318 324 325 327 328 327 325 328 327 326 334 322 309 303 301 291 269 250 247 242 237 232 227 222 220 219 221 216 212 215 218 216 214 216 219 215 207 207 206 206 202 200 203
311 316 323 326 324 320 321 321 315 316 322 317 318 315 308 298 286 273 254 241 237 231 227 220 220 222 218 206 205 206 212 217 216 213 213 216 205 200 204 205 202 204 208
315 314 317 317 315 319 319 318 319 323 322 318 317 315 312 305 301 286 267 257 242 229 229 220 215 219 216 199 201 201 210 213 214 212 209 210 200 196 191 190 196 203 206
338 330 323 319 322 322 317 318 323 322 320 315 314 314 315 309 303 291 273 261 257 251 241 220 212 215 216 197 197 193 209 210 209 209 208 203 197 190 180 184 190 194 198
337 333 326 320 316 312 315 318 320 318 314 315 316 315 316 314 310 298 287 274 259 264 266 242 225 219 218 200 194 196 204 208 208 205 203 199 193 185 179 186 186 193 191
322 320 318 315 309 313 318 312 314 311 313 318 316 316 319 315 310 307 304 294 272 266 269 253 252 230 222 204 195 199 207 206 202 201 202 203 188 186 186 188 190 191 173
314 319 317 312 312 317 318 311 309 313 320 319 316 318 323 324 326 319 314 309 276 239 243 235 264 259 227 215 207 203 209 200 195 202 199 192 184 184 183 185 180 163 154
310 316 314 312 313 317 320 316 316 322 323 322 318 319 322 322 322 319 316 323 306 258 242 216 239 261 252 212 203 201 204 203 198 198 186 179 177 175 179 174 163 155 154
310 316 317 315 317 325 330 321 322 327 327 317 314 316 320 323 331 333 327 320 305 280 253 222 231 263 277 249 196 185 190 185 185 169 158 155 157 160 163 159 158 159 165
312 315 314 312 317 326 327 328 329 328 319 312 314 319 319 319 328 334 329 313 301 290 277 256 229 222 250 252 217 183 188 177 167 138 126 126 135 144 143 139 142 149 150
316 317 314 312 315 317 317 322 327 328 321 317 318 316 315 318 322 327 333 342 329 333 320 302 278 271 261 245 204 184 177 170 153 139 153 158 155 158 155 148 145 140 142